This is the latest recevied weather packets stored in our database for station/object WB3IGR. If no packets are shown the sender has not sent any weather packets the latest 10 day(s).
| Time | Temp. | Humidity | Pressure | Rain* | Wind** | Luminosity | Snow |
|---|---|---|---|---|---|---|---|
| 1777961300 | 18.89° C | 58% | 1011.3 hPa | 0 mm | - | 0 W/m² | - |
| 1777960996 | 18.89° C | 58% | 1011.3 hPa | 0 mm | - | 0 W/m² | - |
| 1777960692 | 19.44° C | 56% | 1011.2 hPa | 0 mm | - | 0 W/m² | - |
| 1777960388 | 18.89° C | 57% | 1011.3 hPa | 0 mm | - | 0 W/m² | - |
| 1777960086 | 19.44° C | 57% | 1011.3 hPa | 0 mm | - | 0 W/m² | - |
| 1777959783 | 19.44° C | 57% | 1011.2 hPa | 0 mm | - | 0 W/m² | - |
| 1777959481 | 18.89° C | 57% | 1011.1 hPa | 0 mm | - | 0 W/m² | - |
| 1777959178 | 18.33° C | 58% | 1010.8 hPa | 0 mm | - | 0 W/m² | - |
| 1777958875 | 18.33° C | 58% | 1011.1 hPa | 0 mm | - | 0 W/m² | - |
| 1777958572 | 18.33° C | 58% | 1010.9 hPa | 0 mm | - | 0 W/m² | - |
| 1777958269 | 18.33° C | 58% | 1011.1 hPa | 0 mm | - | 0 W/m² | - |
| 1777957967 | 18.33° C | 57% | 1011 hPa | 0 mm | - | 0 W/m² | - |
| 1777957664 | 18.33° C | 57% | 1010.9 hPa | 0 mm | - | 0 W/m² | - |
| 1777957363 | 18.33° C | 58% | 1011.1 hPa | 0 mm | - | 0 W/m² | - |
| 1777957058 | 17.78° C | 58% | 1010.8 hPa | 0 mm | - | 0 W/m² | - |
| 1777956756 | 17.78° C | 58% | 1010.9 hPa | 0 mm | - | 0 W/m² | - |
| 1777956452 | 17.78° C | 59% | 1011 hPa | 0 mm | - | 0 W/m² | - |
| 1777956149 | 18.33° C | 58% | 1011.1 hPa | 0 mm | - | 0 W/m² | - |
| 1777955846 | 18.33° C | 58% | 1010.8 hPa | 0 mm | - | 0 W/m² | - |
| 1777955542 | 18.33° C | 57% | 1010.8 hPa | 0 mm | - | 0 W/m² | - |
| 1777955238 | 18.33° C | 57% | 1011 hPa | 0 mm | - | 0 W/m² | - |
| 1777954936 | 18.33° C | 57% | 1010.7 hPa | 0 mm | - | 0 W/m² | - |
| 1777954632 | 18.33° C | 56% | 1011 hPa | 0 mm | - | 0 W/m² | - |
| 1777954330 | 18.33° C | 56% | 1010.9 hPa | 0 mm | - | 0 W/m² | - |
| 1777954027 | 18.33° C | 56% | 1010.9 hPa | 0 mm | - | 0 W/m² | - |
* Rain latest hour (hover to see other rain measurements)
** Current wind speed in m/s (hover to see current wind gust speed)